Velovelo
Português Nederlands 日本語 中文
Español English čeština slovenčina
русский italiano polski norsk
français Deutsch svenska عربي
 
 vorige pagina
 Stuur naar een vriend
 Print dit artikel
 ---> La Flèche Normande 2009 : Résultats du 85 km

ClassDos....NomPrénomCat...C.c....Temps.... .Moy....
1 559 DESGUE Julien C 1 2:30:47 33,82
2 639 TESTIER Jérôme D 1 2:32:25 33,46
3 505 MOINAUX Laurent F 1 2:34:17 33,05
4 565 MESSIER Robert I 1 2:39:57 31,88
5 504 BOMBARDE Thierry F 2 2:40:54 31,69
6 535 ROUSSEL Didier F 3 2:40:55 31,69
7 562 PONSEEL Pierre F 4 2:40:56 31,69
8 507 TERRIER Olivier F 5 2:43:31 31,19
9 506 PONTIN Yves G 1 2:45:12 30,87
10 518 De SALINS Xavier F 6 2:45:12 30,87
11 521 DOURTHE Manuel F 7 2:45:15 30,86
12 540 MOTTE Jean Baptiste C 2 2:47:49 30,39
13 529 HUON Daniel I 2 2:47:49 30,39
14 545 ROMAGNE Michel H 1 2:49:08 30,15
15 534 HOUE Jean Marc F 8 2:49:10 30,15
16 515 BOISROUX Philippe F 9 2:49:12 30,14
17 539 THOUROUDE Mickaël D 2 2:49:13 30,14
18 525 LAIGNEL Patrick F 10 2:49:14 30,14
19 557 MOREL Jean Yves H 2 2:49:15 30,13
20 536 BERGE Pascal E 1 2:49:16 30,13
21 517 WAKEFORD Philippe G 2 2:49:17 30,13
22 531 MIDOL Eric F 11 2:49:19 30,12
23 524 LAIGNEL Pierre Alain C 3 2:49:41 30,05
24 567 GASSE Dominique G 3 2:51:32 29,73
25 526 LIHARD Christophe E 2 2:51:33 29,73
26 522 MARCHAND Daniel H 3 2:53:17 29,43
27 538 JAMES Didier F 12 2:53:18 29,43
28 523 LAIGNEL Maxime C 4 2:53:27 29,4
29 541 MOTTE Olivier F 13 2:53:28 29,4
30 555 LEBESCOUD Christian H 4 2:53:32 29,39
31 543 SARHAN Véronique B 1 2:53:33 29,39
32 544 DEVILLERS Arnaud D 3 2:53:33 29,38
33 530 MINAROLI Stéphane D 4 2:56:55 28,83
34 532 MUTEAU Jean Claude I 3 2:57:02 28,81
35 516 LETELLIER Jean Paul I 4 2:57:03 28,81
36 556 PAGNY Jérome E 3 2:57:18 28,76
37 601 MALEYSSON Charles H 5 2:57:44 28,69
38 542 PLESSIS Philippe E 4 3:00:14 28,29
39 513 LEGEAY Denis D 5 3:08:30 27,05
40 546 AMPOULIE Philippe I 5 3:09:32 26,91
41 558 VARANGLE Michel E 5 3:09:33 26,91
42 528 LEBRUN Daniel I 6 3:10:14 26,81
43 519 GODART Chris I 7 3:12:14 26,53
44 533 HEBERT Frédéric E 6 3:15:09 26,13
45 132 GRANIER Julien D 6 3:19:35 25,55
46 561 JAMES Maxime E 7 3:22:45 25,15
47 19 LENORMAND Christophe E 8 3:23:06 25,11
48 512 OEUILLOT Alain F 14 3:23:06 25,11
49 21 DELANDE Marcel H 6 3:23:06 25,11
50 509 GUEDON Jean Baptiste F 15 3:23:06 25,11
51 511 DENNEVAL Jean Marc F 16 3:23:08 25,1
52 16 AUDOUX Yves I 8 3:23:25 25,07
53 510 AUDOUX Jacqueline B 2 3:23:25 25,07
54 549 GUIBON Joël H 7 3:23:33 25,05
55 551 ROUSSEAU Danielle B 3 3:23:42 25,04
56 553 BRAULT Thomas E 9 3:34:43 23,75
57 554 BOENDERS Daniel I 9 3:39:20 23,25
58 602 DUBOURG Xavier HANDI 1 4:26:06 19,17
59 527 HERNANDEZ Mylène B 4 4:32:35 18,71
60 560 DELANGE Marie Christine B 5 5:00:24 16,98
61 605 LEBLANC Daniel HANDI 2 5:00:53 16,95
62 604 MASSIER René HANDI 3 5:18:31 16,01
63 603 CAZAUBON Sylvain HANDI 4 5:20:24 15,92
64 606 PILLAU Claude HANDI 5 5:54:21 14,39

Haut 









Haut  
 Privé-site   Auteursrecht-Copyright : klik hier om te lezen !